GW7683 Weather Reports


time (UTC)temp
C
wind
direction
speed
KPH
gust
KPH
rain 1hr
cm
rain 24hr
cm
rain mn
cm
humidity
%
barometer
mb
20260906220135 25 43 12.9 17.7 0.00 0.00 0.00 65 1011.1
20260906215634 25 359 16.1 20.9 0.00 0.00 0.00 65 1011.0
20260906215133 25 19 14.5 19.3 0.00 0.00 0.00 67 1011.0
20260906214631 25 12 16.1 20.9 0.00 0.00 0.00 67 1011.0
20260906214126 24 30 17.7 22.5 0.00 0.00 0.00 68 1011.0
20260906213625 24 347 14.5 27.4 0.00 0.00 0.00 68 1011.0
20260906213120 24 25 16.1 22.5 0.00 0.00 0.00 68 1011.1
20260906212618 23 21 14.5 27.4 0.00 0.00 0.00 69 1011.0
20260906212114 24 10 17.7 22.5 0.00 0.00 0.00 68 1011.3
20260906211613 24 18 19.3 22.5 0.00 0.00 0.00 68 1011.2
20260906211108 23 1 20.9 27.4 0.00 0.00 0.00 69 1011.1
20260906210604 23 358 24.1 29.0 0.00 0.00 0.00 69 1011.1
20260906210059 23 11 24.1 29.0 0.00 0.00 0.00 69 1011.3
20260906205554 23 19 17.7 29.0 0.00 0.00 0.00 70 1011.4
20260906205050 23 16 20.9 30.6 0.00 0.00 0.00 70 1011.3
20260906204549 23 26 17.7 30.6 0.00 0.00 0.00 70 1011.2
20260906204044 23 5 20.9 33.8 0.00 0.00 0.00 69 1011.1
20260906203543 24 5 22.5 30.6 0.00 0.00 0.00 68 1011.3
20260906203039 25 10 17.7 27.4 0.00 0.00 0.00 67 1011.3
20260906202535 25 23 17.7 29.0 0.00 0.00 0.00 66 1011.3
20260906202030 25 19 12.9 19.3 0.00 0.00 0.00 65 1011.7
20260906201530 25 16 14.5 17.7 0.00 0.00 0.00 65 1011.4
20260906201030 25 19 19.3 19.3 0.00 0.00 0.00 65 1011.2
20260906200526 25 29 19.3 22.5 0.00 0.00 0.00 64 1011.2
20260906200022 26 49 9.7 19.3 0.00 0.00 0.00 63 1011.2
20260906195517 26 50 17.7 20.9 0.00 0.00 0.00 63 1011.3
20260906195013 26 47 6.4 16.1 0.00 0.00 0.00 63 1011.4
20260906194509 26 42 14.5 20.9 0.00 0.00 0.00 63 1011.7
20260906194004 26 8 8.0 9.7 0.00 0.00 0.00 63 1011.7
20260906193504 26 83 11.3 12.9 0.00 0.00 0.00 62 1011.4
20260906192959 26 0 9.7 16.1 0.00 0.00 0.00 61 1011.6
20260906192454 26 350 8.0 16.1 0.00 0.00 0.00 63 1011.7
20260906191953 26 5 11.3 19.3 0.00 0.00 0.00 64 1011.9
20260906191448 26 356 9.7 22.5 0.00 0.00 0.00 61 1011.9
20260906190948 25 18 6.4 12.9 0.00 0.00 0.00 64 1011.7
20260906190446 26 22 12.9 14.5 0.00 0.00 0.00 63 1011.8
20260906185942 26 3 9.7 12.9 0.00 0.00 0.00 64 1011.8
20260906185441 25 23 6.4 12.9 0.00 0.00 0.00 67 1011.7
20260906184940 25 28 11.3 16.1 0.00 0.00 0.00 65 1012.1
20260906184436 25 351 9.7 11.3 0.00 0.00 0.00 66 1012.0
20260906183931 25 9 14.5 14.5 0.00 0.00 0.00 67 1011.9
20260906183427 25 349 12.9 17.7 0.00 0.00 0.00 65 1011.9
20260906182922 26 335 14.5 16.1 0.00 0.00 0.00 64 1012.1
20260906182417 26 339 12.9 17.7 0.00 0.00 0.00 64 1011.9
20260906181913 26 1 16.1 19.3 0.00 0.00 0.00 63 1011.7
20260906181409 26 1 16.1 25.7 0.00 0.00 0.00 64 1012.2
20260906180904 26 12 8.0 17.7 0.00 0.00 0.00 64 1012.3
20260906180359 25 341 6.4 11.3 0.00 0.00 0.00 65 1012.2
20260906175856 25 1 16.1 16.1 0.00 0.00 0.00 66 1012.4
20260906175352 25 78 4.8 9.7 0.00 0.00 0.00 68 1012.6
20260906174851 24 28 4.8 9.7 0.00 0.00 0.00 70 1012.7
20260906174350 23 0 4.8 11.3 0.00 0.00 0.00 71 1012.8
20260906173845 23 29 9.7 16.1 0.00 0.00 0.00 71 1012.7
20260906173341 23 50 17.7 19.3 0.00 0.00 0.00 71 1012.9
20260906172840 23 14 9.7 17.7 0.00 0.00 0.00 71 1012.7
20260906172336 23 34 12.9 17.7 0.00 0.00 0.00 73 1012.9
20260906171831 23 36 14.5 17.7 0.00 0.00 0.00 74 1013.4
20260906171326 23 36 14.5 16.1 0.00 0.00 0.00 74 1013.3
20260906170822 22 43 9.7 16.1 0.00 0.00 0.00 75 1013.4
20260906170318 22 21 9.7 12.9 0.00 0.00 0.00 75 1013.7
20260906165814 22 5 9.7 16.1 0.00 0.00 0.00 76 1013.4
20260906165313 22 5 11.3 14.5 0.00 0.00 0.00 76 1013.5
20260906164814 22 18 9.7 17.7 0.00 0.00 0.00 76 1013.5
20260906164308 22 25 14.5 19.3 0.00 0.00 0.00 76 1013.5
20260906163804 22 19 16.1 17.7 0.00 0.00 0.00 75 1013.2
20260906163300 22 18 9.7 17.7 0.00 0.00 0.00 76 1013.3
20260906162757 22 20 11.3 20.9 0.00 0.00 0.00 76 1013.1
20260906162256 22 22 19.3 20.9 0.00 0.00 0.00 77 1013.2
20260906161756 22 30 14.5 16.1 0.00 0.00 0.00 77 1013.4
20260906161255 22 43 19.3 20.9 0.00 0.00 0.00 78 1013.1
20260906160754 22 19 9.7 12.9 0.00 0.00 0.00 78 1013.4
20260906160249 21 21 11.3 12.9 0.00 0.00 0.00 78 1013.6
20260906155747 21 20 11.3 16.1 0.00 0.00 0.00 79 1013.4
20260906155242 21 358 14.5 17.7 0.00 0.00 0.00 78 1013.2
20260906154737 21 17 14.5 19.3 0.00 0.00 0.00 78 1012.8
20260906154232 22 6 17.7 20.9 0.00 0.00 0.00 76 1012.8
20260906153730 22 359 9.7 19.3 0.00 0.00 0.00 78 1012.9
20260906153220 21 345 12.9 17.7 0.00 0.00 0.00 78 1013.1
20260906152715 21 349 8.0 17.7 0.00 0.00 0.00 78 1013.2
20260906152215 21 3 9.7 14.5 0.00 0.00 0.00 79 1013.3
20260906151709 21 12 8.0 12.9 0.00 0.00 0.00 80 1013.2
20260906151205 21 12 9.7 12.9 0.00 0.00 0.00 81 1013.3
20260906150700 21 6 11.3 14.5 0.00 0.00 0.00 80 1013.4
20260906150155 21 346 12.9 14.5 0.00 0.00 0.00 81 1013.3
20260906145654 21 351 12.9 17.7 0.00 0.00 0.00 81 1013.5
20260906145154 21 336 16.1 19.3 0.00 0.00 0.00 81 1013.3
20260906144654 20 344 12.9 14.5 0.00 0.00 0.00 82 1013.6
20260906144149 20 349 8.0 11.3 0.00 0.00 0.00 82 1013.6
20260906143649 20 342 11.3 12.9 0.00 0.00 0.00 82 1013.7
20260906143146 20 340 9.7 9.7 0.00 0.00 0.00 83 1013.4
20260906142645 20 348 9.7 12.9 0.00 0.00 0.00 83 1013.7
20260906142141 20 343 12.9 14.5 0.00 0.00 0.00 83 1013.7
20260906141639 20 350 8.0 9.7 0.00 0.00 0.00 84 1013.7
20260906141135 20 348 9.7 11.3 0.00 0.00 0.00 84 1013.7
20260906140634 20 351 9.7 12.9 0.00 0.00 0.00 84 1013.7
20260906140129 20 346 8.0 11.3 0.00 0.00 0.00 85 1013.6
20260906135626 20 352 9.7 11.3 0.00 0.00 0.00 85 1013.5
20260906135122 20 355 9.7 9.7 0.00 0.00 0.00 86 1013.4
20260906134617 20 334 3.2 6.4 0.00 0.00 0.00 87 1013.5
20260906134112 19 348 4.8 8.0 0.00 0.00 0.00 87 1013.3
20260906133608 19 316 6.4 8.0 0.00 0.00 0.00 87 1013.4
20260906133103 19 318 3.2 4.8 0.00 0.00 0.00 88 1013.4
20260906132558 19 301 4.8 4.8 0.00 0.00 0.00 89 1013.4
20260906132054 19 316 3.2 6.4 0.00 0.00 0.00 89 1013.3
20260906131549 18 327 4.8 6.4 0.00 0.00 0.00 90 1013.6
20260906131044 18 221 0.0 3.2 0.00 0.00 0.00 89 1013.5
20260906130544 18 209 1.6 1.6 0.00 0.00 0.00 89 1013.5
20260906130039 18 249 3.2 4.8 0.00 0.00 0.00 89 1013.5
20260906125537 18 217 3.2 4.8 0.00 0.00 0.00 89 1013.4
20260906125036 19 216 6.4 6.4 0.00 0.00 0.00 89 1013.7
20260906124532 19 218 4.8 6.4 0.00 0.00 0.00 87 1013.6
20260906124027 19 206 4.8 6.4 0.00 0.00 0.00 88 1013.3
20260906123526 19 228 3.2 3.2 0.00 0.00 0.00 88 1013.1
20260906123021 19 262 4.8 9.7 0.00 0.00 0.00 88 1013.2
20260906122521 19 229 6.4 6.4 0.00 0.00 0.00 87 1012.8
20260906122017 19 221 6.4 9.7 0.00 0.00 0.00 87 1012.3
20260906121513 19 3 9.7 24.1 0.00 0.00 0.00 87 1011.9
20260906121010 19 32 16.1 27.4 0.00 0.00 0.00 88 1011.4
20260906120509 19 15 24.1 32.2 0.00 0.00 0.00 88 1011.2
20260906120008 19 20 22.5 32.2 0.00 0.00 0.00 87 1010.6
20260906115502 20 18 24.1 27.4 0.00 0.00 0.00 84 1011.8
20260906115001 20 19 9.7 11.3 0.00 0.00 0.00 84 1013.2
20260906114456 20 114 4.8 9.7 0.00 0.00 0.00 84 1013.7
20260906113952 20 160 6.4 6.4 0.00 0.00 0.00 84 1013.6
20260906113451 20 12 8.0 22.5 0.00 0.00 0.00 84 1012.5
20260906112946 19 15 19.3 27.4 0.00 0.00 0.00 85 1011.8
20260906112441 19 16 24.1 30.6 0.00 0.00 0.00 85 1011.7
20260906111937 19 17 24.1 25.7 0.00 0.00 0.00 85 1011.8
20260906111436 19 359 19.3 29.0 0.00 0.00 0.00 85 1012.0
20260906110931 19 7 16.1 22.5 0.00 0.00 0.00 84 1012.4
20260906110427 19 349 25.7 27.4 0.00 0.00 0.00 84 1012.5
20260906105926 19 7 24.1 25.7 0.00 0.00 0.00 84 1012.4
20260906105422 19 0 12.9 20.9 0.00 0.00 0.00 83 1013.2
20260906104918 19 357 14.5 19.3 0.00 0.00 0.00 84 1013.8
20260906104416 19 348 9.7 14.5 0.00 0.00 0.00 84 1014.0
20260906103915 19 333 9.7 14.5 0.00 0.00 0.00 84 1014.2
20260906103414 19 346 11.3 17.7 0.00 0.00 0.00 84 1014.4
20260906102910 19 336 11.3 14.5 0.00 0.00 0.00 84 1014.7
20260906102409 19 319 12.9 16.1 0.00 0.00 0.00 83 1014.5
20260906101904 19 339 17.7 29.0 0.00 0.00 0.00 83 1013.7
20260906101359 20 342 29.0 29.0 0.00 0.00 0.00 82 1013.2
20260906100854 20 346 19.3 30.6 0.00 0.00 0.00 81 1012.9
20260906100353 20 341 17.7 20.9 0.00 0.00 0.00 81 1013.8
20260906095848 20 306 16.1 17.7 0.00 0.00 0.00 81 1014.4
20260906095344 20 292 11.3 14.5 0.00 0.00 0.00 81 1014.9
20260906094843 20 291 8.0 11.3 0.00 0.00 0.00 81 1015.1
20260906094339 20 289 8.0 16.1 0.00 0.00 0.00 81 1015.1
20260906093835 20 280 11.3 16.1 0.00 0.00 0.00 81 1015.3
20260906093331 20 253 6.4 12.9 0.00 0.00 0.00 82 1015.1
20260906092825 19 273 9.7 17.7 0.00 0.00 0.00 83 1015.2
20260906092325 19 232 3.2 6.4 0.00 0.00 0.00 83 1014.9
20260906091821 19 289 6.4 9.7 0.00 0.00 0.00 84 1014.5
20260906091317 18 296 8.0 9.7 0.00 0.00 0.00 83 1014.7
20260906090813 19 282 6.4 9.7 0.00 0.00 0.00 84 1014.5
20260906090312 18 283 6.4 11.3 0.00 0.00 0.00 84 1014.5
20260906085807 18 278 8.0 11.3 0.00 0.00 0.00 85 1014.3
20260906085307 18 273 8.0 11.3 0.00 0.00 0.00 85 1014.0
20260906084801 18 278 9.7 9.7 0.00 0.00 0.00 84 1013.7
20260906084300 19 305 9.7 12.9 0.00 0.00 0.00 83 1013.4
20260906083755 19 340 9.7 12.9 0.00 0.00 0.00 83 1013.5
20260906083251 19 350 11.3 11.3 0.00 0.00 0.00 83 1013.4
20260906082745 19 6 8.0 14.5 0.00 0.00 0.00 82 1013.2
20260906082240 19 13 12.9 19.3 0.00 0.00 0.00 82 1012.8
20260906081736 19 21 11.3 16.1 0.00 0.00 0.00 82 1012.8
20260906081231 20 16 12.9 16.1 0.00 0.00 0.00 82 1012.7
20260906080728 19 24 14.5 20.9 0.00 0.00 0.00 82 1012.8
20260906080224 20 9 8.0 16.1 0.00 0.00 0.00 81 1013.1
20260906075724 20 11 12.9 17.7 0.00 0.00 0.00 81 1013.2
20260906075224 20 6 11.3 19.3 0.00 0.00 0.00 81 1013.3
20260906074719 20 3 11.3 17.7 0.00 0.00 0.00 81 1013.1
20260906074218 20 6 11.3 17.7 0.00 0.00 0.00 81 1013.3
20260906073713 20 5 14.5 17.7 0.00 0.00 0.00 81 1013.1
20260906073208 20 11 12.9 19.3 0.00 0.00 0.00 81 1013.1
20260906072704 20 14 12.9 19.3 0.00 0.00 0.00 80 1013.1
20260906072159 20 14 12.9 17.7 0.00 0.00 0.00 80 1013.4
20260906071655 20 12 12.9 16.1 0.00 0.00 0.00 80 1013.5
20260906071154 20 9 8.0 16.1 0.00 0.00 0.00 79 1013.5
20260906070651 20 6 8.0 20.9 0.00 0.00 0.00 79 1013.5
20260906070147 20 10 12.9 17.7 0.00 0.00 0.00 79 1013.3
20260906065646 20 7 12.9 20.9 0.00 0.00 0.00 79 1013.3
20260906065142 20 15 12.9 16.1 0.00 0.00 0.00 78 1013.4
20260906064637 20 15 11.3 19.3 0.00 0.00 0.00 78 1013.4
20260906064133 20 4 12.9 19.3 0.00 0.00 0.00 77 1013.3
20260906063628 20 10 11.3 17.7 0.00 0.00 0.00 77 1013.3
20260906063124 20 19 14.5 17.7 0.00 0.00 0.00 77 1013.5
20260906062619 20 9 14.5 19.3 0.00 0.00 0.00 77 1013.5
20260906062118 20 10 11.3 19.3 0.00 0.00 0.00 77 1013.8
20260906061614 20 7 14.5 16.1 0.00 0.00 0.00 76 1013.8
20260906061114 20 13 12.9 17.7 0.00 0.00 0.00 76 1013.7
20260906060611 21 2 11.3 17.7 0.00 0.00 0.00 75 1013.6
20260906060108 21 15 17.7 19.3 0.00 0.00 0.00 75 1013.7
20260906055603 21 0 16.1 17.7 0.00 0.00 0.00 74 1013.7
20260906055058 21 10 14.5 20.9 0.00 0.00 0.00 74 1013.7
20260906054558 21 10 14.5 17.7 0.00 0.00 0.00 73 1013.7
20260906054053 21 7 17.7 19.3 0.00 0.00 0.00 73 1013.6
20260906053550 21 7 16.1 19.3 0.00 0.00 0.00 72 1013.7
20260906053045 21 0 16.1 22.5 0.00 0.00 0.00 72 1013.8
20260906052540 21 2 17.7 20.9 0.00 0.00 0.00 72 1013.8
20260906052038 21 2 14.5 19.3 0.00 0.00 0.00 71 1013.6
20260906051533 21 6 12.9 20.9 0.00 0.00 0.00 71 1013.9
20260906051028 21 0 16.1 20.9 0.00 0.00 0.00 71 1014.0
20260906050523 21 1 14.5 19.3 0.00 0.00 0.00 71 1013.7
20260906050018 21 6 16.1 22.5 0.00 0.00 0.00 71 1014.0
20260906045516 21 1 16.1 20.9 0.00 0.00 0.00 70 1014.0
20260906045012 21 6 19.3 24.1 0.00 0.00 0.00 70 1013.9
20260906044507 21 19 17.7 24.1 0.00 0.00 0.00 69 1014.0
20260906044003 21 12 16.1 29.0 0.00 0.00 0.00 69 1014.2
20260906043458 21 5 14.5 25.7 0.00 0.00 0.00 69 1014.1
20260906042954 22 0 17.7 27.4 0.00 0.00 0.00 68 1014.3
20260906042453 22 13 22.5 30.6 0.00 0.00 0.00 68 1014.0
20260906041953 22 15 19.3 25.7 0.00 0.00 0.00 68 1014.2
20260906041450 22 15 17.7 24.1 0.00 0.00 0.00 67 1014.2
20260906040949 22 2 17.7 22.5 0.00 0.00 0.00 67 1014.0
20260906040444 22 3 20.9 24.1 0.00 0.00 0.00 66 1014.3
20260906035939 22 4 16.1 24.1 0.00 0.00 0.00 66 1014.3
20260906035435 22 10 12.9 25.7 0.00 0.00 0.00 66 1014.0
20260906034930 22 8 19.3 24.1 0.00 0.00 0.00 65 1014.1
20260906034425 22 21 17.7 30.6 0.00 0.00 0.00 65 1014.1
20260906033920 22 7 20.9 27.4 0.00 0.00 0.00 64 1014.2
20260906033420 22 6 20.9 30.6 0.00 0.00 0.00 64 1014.2
20260906032916 22 7 20.9 25.7 0.00 0.00 0.00 63 1014.2
20260906032413 22 9 20.9 24.1 0.00 0.00 0.00 63 1014.2
20260906031913 22 9 19.3 20.9 0.00 0.00 0.00 63 1014.3
20260906031409 22 13 17.7 27.4 0.00 0.00 0.00 63 1014.3
20260906030909 22 16 14.5 22.5 0.00 0.00 0.00 63 1014.2
20260906030404 22 2 24.1 24.1 0.00 0.00 0.00 63 1014.2
20260906025858 22 351 19.3 24.1 0.00 0.00 0.00 63 1014.2
20260906025353 22 359 17.7 24.1 0.00 0.00 0.00 63 1014.0
20260906024852 22 1 17.7 29.0 0.00 0.00 0.00 64 1014.0
20260906024351 22 5 16.1 24.1 0.00 0.00 0.00 64 1013.9
20260906023846 22 355 19.3 27.4 0.00 0.00 0.00 63 1013.8
20260906023342 22 0 19.3 27.4 0.00 0.00 0.00 62 1013.8
20260906022837 22 0 19.3 25.7 0.00 0.00 0.00 62 1013.7
20260906022337 22 0 19.3 29.0 0.00 0.00 0.00 62 1013.4
20260906021833 22 352 14.5 20.9 0.00 0.00 0.00 62 1013.5
20260906021333 22 346 24.1 27.4 0.00 0.00 0.00 61 1013.6
20260906020828 22 348 19.3 24.1 0.00 0.00 0.00 61 1013.4
20260906020327 22 344 16.1 22.5 0.00 0.00 0.00 60 1013.4
20260906015822 23 347 12.9 24.1 0.00 0.00 0.00 60 1013.4
20260906015321 23 344 14.5 24.1 0.00 0.00 0.00 60 1013.4
20260906014820 23 344 12.9 20.9 0.00 0.00 0.00 59 1013.5
20260906014316 23 344 14.5 22.5 0.00 0.00 0.00 59 1013.5
20260906013812 23 351 20.9 22.5 0.00 0.00 0.00 58 1013.4
20260906013307 23 343 17.7 20.9 0.00 0.00 0.00 58 1013.6
20260906012802 24 341 12.9 22.5 0.00 0.00 0.00 57 1013.3
20260906012257 24 343 12.9 16.1 0.00 0.00 0.00 56 1013.4
20260906011752 25 329 17.7 27.4 0.00 0.00 0.00 55 1013.4
20260906011252 25 334 17.7 22.5 0.00 0.00 0.00 53 1012.9
20260906010748 26 329 19.3 25.7 0.00 0.00 0.00 52 1012.8
20260906010244 26 327 19.3 24.1 0.00 0.00 0.00 52 1013.4
20260906005739 26 340 19.3 20.9 0.00 0.00 0.00 51 1012.8
20260906005238 26 334 20.9 27.4 0.00 0.00 0.00 51 1012.8
20260906004737 26 334 20.9 27.4 0.00 0.00 0.00 51 1013.1
20260906004233 26 324 17.7 25.7 0.00 0.00 0.00 51 1012.9
20260906003733 26 336 16.1 29.0 0.00 0.00 0.00 50 1012.8
20260906003229 27 334 14.5 25.7 0.00 0.00 0.00 50 1012.7
20260906002728 27 324 19.3 22.5 0.00 0.00 0.00 49 1012.7
20260906002229 27 318 17.7 19.3 0.00 0.00 0.00 49 1012.7
20260906001724 27 345 14.5 19.3 0.00 0.00 0.00 49 1012.7
20260906001219 27 298 16.1 20.9 0.00 0.00 0.00 49 1012.7
20260906000714 27 307 22.5 25.7 0.00 0.00 0.00 48 1012.5
20260906000211 27 302 14.5 22.5 0.00 0.00 0.00 49 1012.6
20260905235709 28 301 16.1 22.5 0.00 0.00 0.00 48 1012.5
20260905235204 28 301 12.9 17.7 0.00 0.00 0.00 48 1012.7
20260905234659 27 306 14.5 19.3 0.00 0.00 0.00 49 1012.8
20260905234154 27 299 14.5 16.1 0.00 0.00 0.00 49 1012.7
20260905233649 27 291 9.7 14.5 0.00 0.00 0.00 50 1012.5
20260905233149 27 294 14.5 14.5 0.00 0.00 0.00 50 1012.7
20260905232644 27 305 14.5 19.3 0.00 0.00 0.00 50 1012.6
20260905232140 27 298 11.3 20.9 0.00 0.00 0.00 50 1012.7
20260905231635 27 283 11.3 16.1 0.00 0.00 0.00 50 1012.8
20260905231131 27 309 16.1 20.9 0.00 0.00 0.00 50 1012.6
20260905230627 27 309 14.5 17.7 0.00 0.00 0.00 51 1012.5
20260905230125 27 320 9.7 16.1 0.00 0.00 0.00 52 1012.5
20260905225624 27 328 9.7 19.3 0.00 0.00 0.00 51 1012.3
20260905225120 27 301 9.7 14.5 0.00 0.00 0.00 51 1012.4
20260905224619 27 310 9.7 11.3 0.00 0.00 0.00 52 1012.6
20260905224119 27 299 6.4 9.7 0.00 0.00 0.00 52 1012.7
20260905223616 27 318 14.5 17.7 0.00 0.00 0.00 52 1012.7
20260905223112 27 320 12.9 14.5 0.00 0.00 0.00 52 1012.7
20260905222612 27 341 6.4 12.9 0.00 0.00 0.00 53 1012.6
20260905222108 27 331 8.0 14.5 0.00 0.00 0.00 52 1012.8
20260905221603 27 317 6.4 12.9 0.00 0.00 0.00 52 1012.7
20260905221100 27 337 9.7 19.3 0.00 0.00 0.00 52 1012.8
20260905220555 27 310 16.1 20.9 0.00 0.00 0.00 51 1012.6